Hourly Data Report for October 18, 2013

All times are specified in Local Standard Time (LST). Add 1 hour to adjust for Daylight Saving Time where and when it is observed.

HALL BEACH A
NUNAVUT

68°46'33.000" N
81°14'33.000" W
9.10 m
2402354
71293
YUX

Download Data

Hourly Data (October 2013)
Hourly Data Report for October 18, 2013
Temp Definition
°C
Dew Point Temp Definition
°C
Rel Hum Definition
%
Wind Dir Definition
10's deg

Wind Spd Definition
km/h
Visibility Definition
km
Stn Press Definition
kPa
Hmdx Definition


Wind Chill Definition


Weather Definition


TIME
00:00 Legend Double Dagger -0.9 -1.3 97 11 33 2.8 100.21   -8 LegendNANA
01:00 Legend Double Dagger -0.8 -1.2 97 11 35 2.4 100.16   -8 LegendNANA
02:00 Legend Double Dagger -0.8 -1.2 97 12 33 2.8 100.12   -8 LegendNANA
03:00 Legend Double Dagger -0.8 -1.2 97 12 33 3.2 100.09   -8 LegendNANA
04:00 Legend Double Dagger -0.9 -1.3 97 11 33 3.2 100.05   -8 LegendNANA
05:00 Legend Double Dagger -0.9 -1.3 97 11 35 3.6 100.02   -8 LegendNANA
06:00 Legend Double Dagger -0.9 -1.3 97 11 32 2.4 99.99   -8 LegendNANA
07:00 Legend Double Dagger -0.9 -1.3 97 11 33 4.8 99.97   -8 LegendNANA
08:00 Legend Double Dagger -0.9 -1.3 97 12 28 3.6 99.93   -7 LegendNANA
09:00 Legend Double Dagger -0.9 -1.3 97 11 30 3.2 99.92   -8 LegendNANA
10:00 Legend Double Dagger -0.9 -1.3 97 11 28 4.0 99.90   -7 LegendNANA
11:00 Legend Double Dagger -0.9 -1.3 97 11 22 4.8 99.88   -7 LegendNANA
12:00 Legend Double Dagger -0.7 -1.0 98 13 21 1.6 99.90   -6 LegendNANA
13:00 Legend Double Dagger -0.7 -1.0 98 15 21 4.0 99.94   -6 LegendNANA
14:00 Legend Double Dagger -0.7 -1.1 97 13 22 6.4 99.96   -6 LegendNANA
15:00 Legend Double Dagger -0.7 -1.3 96 14 24 16.1 99.99   -7 LegendNANA
16:00 Legend Double Dagger -0.8 -1.2 97 12 21 3.2 99.99   -6 LegendNANA
17:00 Legend Double Dagger -0.8 -1.2 97 13 24 6.4 99.99   -7 LegendNANA
18:00 Legend Double Dagger -0.8 -1.1 98 14 26 4.0 100.02   -7 LegendNANA
19:00 Legend Double Dagger -0.9 -1.2 98 13 26 3.6 100.04   -7 LegendNANA
20:00 Legend Double Dagger -0.9 -1.2 98 13 22 6.4 100.06   -7 LegendNANA
21:00 Legend Double Dagger -0.9 -1.2 98 14 18 6.4 100.09   -6 LegendNANA
22:00 Legend Double Dagger -0.8 -1.4 96 19 17 16.1 100.15   -6 LegendNANA
23:00 Legend Double Dagger -1.3 -1.7 97 19 15 2.0 100.24   -6 LegendNANA

Notes on Data Quality.

Legend

  • E = Estimated
  • M = Missing
  • NA = Not Available
  • ‡ = Partner data that is not subject to review by the National Climate Archives
Date modified: